Torna al catalogo

STARLINK-30807

AttivoComunicazioniVLEO
NORAD 58192·PAYLOAD·🇺🇸 United States

Lanciato Oct 30, 2023 da Cape Canaveral Space Force Station

Loading…

Prossimi Passaggi (prossime 24 ore)

TLE

AggiornatoSource: CelesTrak SupGP

Epoca: Sep 14, 2026, 22:40 UTC

1 58192C 23167T   26257.94493056 -.00066153  00000+0 -23963-2 0  2570
2 58192  43.0026 154.6238 0001299 272.7297 273.5891 15.27608715    16

Traccia STARLINK-30807 in tempo reale con AllMySat

Download on the App Store